Regional Weather Roundup
Issued by NWS

Home | Current Version | Previous Version | Text Only | Print | Product List | Glossary On
Versions: 1 2 3 4 5 6 7 8 9 10 11 12 13 14 15 16 17 18 19 20 21 22 23 24 25 26 27 28
000
ASUS44 KBMX 252310
RWRAL

ALABAMA REGIONAL WEATHER ROUNDUP
NATIONAL WEATHER SERVICE BIRMINGHAM AL
600 PM CDT MON JUL 25 2016

NOTE: "FAIR" INDICATES FEW OR NO CLOUDS BELOW 12,000 FEET
WITH NO SIGNIFICANT WEATHER AND/OR OBSTRUCTIONS TO VISIBILITY.

THE REMARK "TC" DENOTES TEMPERATURE IN DEGREES CELSIUS.

ALZ001>011-014-016>018-020-260000-
NORTH ALABAMA

CITY           SKY/WX    TMP DP  RH WIND       PRES   REMARKS
MUSCLE SHOALS  SUNNY     94  68  42 VRB5      29.96S HX  98
HUNTSVILLE     MOSUNNY   96  63  33 CALM      29.95F HX  97
DECATUR        SUNNY     95  67  39 W5        29.96S HX  99
HALEYVILLE     FAIR      91  71  51 SW6       30.00S HX  97
GADSDEN        SUNNY     94  73  50 SW3       29.96F HX 103
$$

ALZ012-013-022-023-030>036-040>044-260000-
WEST CENTRAL ALABAMA

CITY           SKY/WX    TMP DP  RH WIND       PRES   REMARKS
TUSCALOOSA     SUNNY     93  70  46 SW5       29.94S HX  99
$$

ALZ015-024>027-033>036-040>044-260000-
CENTRAL ALABAMA

CITY           SKY/WX    TMP DP  RH WIND       PRES   REMARKS
BIRMINGHAM     MOSUNNY   92  69  47 W6        29.99S HX  97
MONTGOMERY     SUNNY     94  69  44 S8        29.95R HX  99
SHELBY CO ARPT MOSUNNY   94  67  41 VRB3      29.96F HX  97
MAXWELL AFB    SUNNY     94  70  45 S8        29.94S HX 100
GREENVILLE     NOT AVBL
$$

ALZ019-021-028-029-037-038-045>048-260000-
EAST CENTRAL ALABAMA

CITY           SKY/WX    TMP DP  RH WIND       PRES   REMARKS
ANNISTON       SUNNY     92  70  48 W9        29.96F HX  97
ALEXANDER CITY MOSUNNY   89  77  67 E22G29    30.01R HX 101
AUBURN         CLOUDY    81  74  79 SE5       30.01S
$$

ALZ051>064-260000-
SOUTHWEST ALABAMA

CITY           SKY/WX    TMP DP  RH WIND       PRES   REMARKS
MOBILE         MOSUNNY   88  74  63 SE14G22   29.94F HX  96
BROOKLEY FIELD MOSUNNY   89  77  67 SE14      29.94F HX 101
EVERGREEN      CLOUDY    88  71  57 S13       29.97R HX  94
$$

ALZ049-050-065>069-260000-
SOUTHEAST ALABAMA

CITY           SKY/WX    TMP DP  RH WIND       PRES   REMARKS
DOTHAN         CLOUDY    86  70  58 S9        30.01F HX  90
OZARK          CLOUDY    87  71  59 SE9       29.97F HX  92
TROY           SUNNY     91  68  46 SE10      29.97S HX  95
EUFAULA        FAIR      92  68  45 SE6       29.95F HX  96
$$




USA.gov is the U.S. government's official web portal to all federal, state and local government web resources and services.